+ View the NASA Portal
+ Center for Near-Earth Object Studies
IMPORTANT:
The SSD Announcement email list is now available. Major changes are coming in the near future, including possible hostname and/or URL changes. To be notified of such changes, subscribe to this email list.
Please visit
this page
for more details.
Don't show this message again
JPL Small-Body Database Browser
Search:
[
help
]
312881 (2011 UU199)
Classification:
Main-belt Asteroid
SPK-ID:
2312881
[
Ephemeris
|
Orbit Diagram
|
Orbital Elements
|
Mission Design
|
Physical Parameters
|
Discovery Circumstances
|
Close-Approach Data
]
[ show orbit diagram ]
Orbital Elements at Epoch 2458600.5 (2019-Apr-27.0) TDB
Reference:
JPL 9
(heliocentric ecliptic J2000)
Element
Value
Uncertainty (1-sigma)
Units
e
.1440385686182304
4.8258e-08
a
2.64988857649476
3.2957e-08
au
q
2.268202418938654
1.3515e-07
au
i
4.03400554338021
7.8567e-06
deg
node
327.9127276577168
8.4901e-05
deg
peri
114.7885250119045
9.5472e-05
deg
M
246.1370228919791
4.3512e-05
deg
t
p
2459098.833267289520
(2020-Sep-06.33326729)
0.00019718
TDB
period
1575.577775856254
4.31
2.9394e-05
8.048e-08
d
yr
n
.2284876097623023
4.2626e-09
deg/d
Q
3.031574734050865
3.7704e-08
au
Orbit Determination Parameters
# obs. used (total)
153
data-arc span
7112 days (19.47 yr)
first obs. used
2000-04-13
last obs. used
2019-10-03
planetary ephem.
DE431
SB-pert. ephem.
SB431-N16
condition code
0
norm. resid. RMS
.5614
source
ORB
producer
Otto Matic
solution date
2019-Nov-08 08:13:06
Additional Information
Earth MOID
= 1.28771 au
Jupiter MOID
= 2.18872 au
T_jup
= 3.372
[ show covariance matrix ]
[
Ephemeris
|
Orbit Diagram
|
Orbital Elements
|
Mission Design
|
Physical Parameters
|
Discovery Circumstances
|
Close-Approach Data
]
Physical Parameter Table
Parameter
Symbol
Value
Units
Sigma
Reference
Notes
absolute magnitude
H
17.1
n/a
MPO397108
312881 (2011 UU199)
Discovered 2006-Aug-19 by Spacewatch at Kitt Peak
Reference:
20120109/Numbers.arc
Last Updated:
2012-01-11
[ show close-approach data ]
Alternate Designations
2011 UU199
= 2006 QM151
[
Ephemeris
|
Orbit Diagram
|
Orbital Elements
|
Mission Design
|
Physical Parameters
|
Discovery Circumstances
|
Close-Approach Data
]
2019-Dec-14 19:17 UT
(server date/time)
Site Manager:
Ryan S. Park
Webmaster
:
Alan B. Chamberlin